"Pseudo-MPEC" for P22pap8

Created 2026 Aug 12 3:35:27 UT using Find_Orb

Click here for an explanation of pseudo-MPECs

 
 Astrometry: 
     P22pap8*0C2026 08 09.29399418 45 59.323+47 55 48.56   ~8A05 22.00wXNEOCPF52
     P22pap8 0C2026 08 09.30667618 45 57.705+47 55 07.70   ~8A05 22.48wXNEOCPF52
     P22pap8 0C2026 08 09.31936818 45 56.094+47 54 26.96   ~8A05 21.88wXNEOCPF52
     P22pap8 0C2026 08 09.33207518 45 54.482+47 53 45.49   ~8A05 22.00wXNEOCPF52
     P22pap8 3C2026 08 11.43896918 42 58.838+46 03 07.79   ~8BMK 22.28GVNEOCPT14
     P22pap8 3C2026 08 11.43994518 42 58.740+46 03 04.67   ~8BMK 22.31GVNEOCPT14
     P22pap8 3C2026 08 11.44091718 42 58.649+46 03 01.56   ~8BMK 21.99GVNEOCPT14
     P22pap8 3C2026 08 11.44189018 42 58.561+46 02 58.50   ~8BMK 22.16GVNEOCPT14

Station data:
(F52) Pan-STARRS 2, Haleakala  (N20.707382 W156.255910)  US/Hawaii.
   Observers J. Herman, T. Lowe, P. Minguez, A. Schultz, I. Smith. Measurers
   K. Chambers, T. de Boer, J. Fairlamb, H. Gao, M. Huber, C.-C. Lin, E.
   Magnier, Y. Ramanjooloo, R. Wainscoat, R. Weryk. 1.8-m Ritchey-Chrétien +
   CCD.
(T14) Mauna Kea-UH/Tholen NEO Follow-Up (CFHT)  (N19.825252 W155.468876)
   US/Hawaii.  Observer R. Weryk. 3.6-m Canada-France-Hawaii Telescope.

Orbital elements:  P22pap8
   Perihelion 2026 Apr 19.154161 +/- 1.18 TT =  3:41:59.5 (JD 2461149.654161)
Epoch 2026 Aug 11.0 TT = JDT 2461263.5   Earth MOID: 0.0620   Ve: 0.0620
M 130.468245243 +/- 1.4             (J2000 ecliptic)             AutoNEOCP
n   1.146008026 +/- 0.00203         Peri.  250.741957 +/- 0.6
a   0.904366103 +/- 0.00107         Node   278.486291 +/- 1.4
e   0.24662122 +/- 0.00522          Incl.   12.603255 +/- 0.51
P   0.860/314.128d         H 23.85  G  0.15   U  8.6
q 0.681330226 +/- 0.00474    Q 1.127401980 +/- 0.00498
From 8 observations 2026 Aug. 9-11; mean residual 0".05
Residuals in arcseconds: 
260809 F52  .04+  .02+    260809 F52  .03+  .05-    260811 T14  .02-  .02-    
260809 F52  .05-  .11-    260811 T14  .03+  .01-    260811 T14  .02+  .03+    
260809 F52  .02-  .14+    260811 T14  .03-  .01-    

Ephemerides (geocentric):
Date (UTC) HH   RA             Dec           delta  r     elong  mag " sig PA
---- --------  ------------   ------------  ------ ------ -----  --- --------
2026 08 12 04  18 42 12.721   +45 26 30.02  .16189 1.0771 109.0 22.3 1.28 140
2026 08 12 05  18 42 10.035   +45 24 26.60  .16205 1.0772 109.0 22.3 1.32 142
2026 08 12 06  18 42 07.364   +45 22 23.35  .16221 1.0773 109.0 22.3 1.36 143
2026 08 12 07  18 42 04.708   +45 20 20.26  .16238 1.0774 109.1 22.3 1.41 144
2026 08 12 08  18 42 02.068   +45 18 17.34  .16254 1.0775 109.1 22.3 1.45 145
2026 08 12 09  18 41 59.442   +45 16 14.58  .16270 1.0776 109.1 22.3 1.49 146
2026 08 12 10  18 41 56.832   +45 14 11.98  .16286 1.0777 109.1 22.3 1.54 147
2026 08 12 11  18 41 54.236   +45 12 09.55  .16302 1.0778 109.1 22.3 1.59 149
2026 08 12 12  18 41 51.655   +45 10 07.27  .16319 1.0779 109.1 22.3 1.64 150
2026 08 12 13  18 41 49.090   +45 08 05.17  .16335 1.0780 109.1 22.3 1.69 151
2026 08 12 14  18 41 46.539   +45 06 03.22  .16351 1.0781 109.1 22.3 1.74 151
2026 08 12 15  18 41 44.003   +45 04 01.43  .16367 1.0782 109.2 22.3 1.79 152
2026 08 12 16  18 41 41.481   +45 01 59.80  .16384 1.0783 109.2 22.3 1.84 153
2026 08 12 17  18 41 38.974   +44 59 58.34  .16400 1.0783 109.2 22.3 1.90 154
2026 08 12 18  18 41 36.482   +44 57 57.03  .16416 1.0784 109.2 22.3 1.95 155
2026 08 12 19  18 41 34.005   +44 55 55.89  .16432 1.0785 109.2 22.3 2.01 156
2026 08 12 20  18 41 31.542   +44 53 54.90  .16448 1.0786 109.2 22.3 2.07 156
2026 08 12 21  18 41 29.093   +44 51 54.07  .16465 1.0787 109.2 22.3 2.13 157
2026 08 12 22  18 41 26.659   +44 49 53.40  .16481 1.0788 109.2 22.3 2.19 158
2026 08 12 23  18 41 24.239   +44 47 52.89  .16497 1.0789 109.2 22.3 2.25 159
2026 08 13 00  18 41 21.834   +44 45 52.53  .16513 1.0790 109.3 22.3 2.31 159
2026 08 13 01  18 41 19.442   +44 43 52.33  .16530 1.0791 109.3 22.3 2.38 160
2026 08 13 02  18 41 17.065   +44 41 52.29  .16546 1.0792 109.3 22.3 2.44 160
2026 08 13 03  18 41 14.703   +44 39 52.41  .16562 1.0793 109.3 22.3 2.51 161
2026 08 13 04  18 41 12.354   +44 37 52.68  .16579 1.0794 109.3 22.3 2.58 162
2026 08 13 05  18 41 10.020   +44 35 53.11  .16595 1.0795 109.3 22.3 2.65 162
2026 08 13 06  18 41 07.699   +44 33 53.69  .16611 1.0796 109.3 22.3 2.72 163
2026 08 13 07  18 41 05.393   +44 31 54.43  .16627 1.0797 109.3 22.3 2.79 163
2026 08 13 08  18 41 03.100   +44 29 55.32  .16644 1.0798 109.3 22.3 2.86 164
2026 08 13 09  18 41 00.821   +44 27 56.36  .16660 1.0799 109.4 22.3 2.93 164
2026 08 13 10  18 40 58.556   +44 25 57.56  .16676 1.0800 109.4 22.3 3.01 165
2026 08 13 11  18 40 56.305   +44 23 58.91  .16692 1.0801 109.4 22.3 3.08 165
2026 08 13 12  18 40 54.068   +44 22 00.42  .16709 1.0802 109.4 22.3 3.16 166
2026 08 13 13  18 40 51.845   +44 20 02.07  .16725 1.0803 109.4 22.3 3.23 166
2026 08 13 14  18 40 49.635   +44 18 03.88  .16741 1.0804 109.4 22.4 3.31 166
2026 08 13 15  18 40 47.439   +44 16 05.84  .16757 1.0805 109.4 22.4 3.39 167
2026 08 13 16  18 40 45.256   +44 14 07.96  .16774 1.0806 109.4 22.4 3.47 167
2026 08 13 17  18 40 43.087   +44 12 10.22  .16790 1.0807 109.4 22.4 3.55 168
2026 08 13 18  18 40 40.932   +44 10 12.63  .16806 1.0808 109.4 22.4 3.64 168
2026 08 13 19  18 40 38.789   +44 08 15.20  .16823 1.0809 109.5 22.4 3.72 168
2026 08 13 20  18 40 36.661   +44 06 17.91  .16839 1.0809 109.5 22.4 3.80 169
2026 08 13 21  18 40 34.545   +44 04 20.77  .16855 1.0810 109.5 22.4 3.89 169
2026 08 13 22  18 40 32.443   +44 02 23.79  .16872 1.0811 109.5 22.4 3.97 169
2026 08 13 23  18 40 30.355   +44 00 26.95  .16888 1.0812 109.5 22.4 4.06 170
2026 08 14 00  18 40 28.279   +43 58 30.26  .16904 1.0813 109.5 22.4 4.15 170
2026 08 14 01  18 40 26.217   +43 56 33.72  .16920 1.0814 109.5 22.4 4.24 170
2026 08 14 02  18 40 24.168   +43 54 37.32  .16937 1.0815 109.5 22.4 4.33 170
2026 08 14 03  18 40 22.132   +43 52 41.07  .16953 1.0816 109.5 22.4 4.42 171